PBO Station Position Time Series. Reference Frame : NAM14
Format Version,1.1.0
4-character ID,P820
Station name,DingbatFltOR2017
Begin Date, 2017-08-11
End Date, 2019-10-07
Release Date, 2019-10-08
Reference position, 42.8618523117 North Latitude, -124.0539448868 East Longitude, 68.82713 meters elevation,
Date, North (mm), East (mm), Vertical (mm), North Std. Deviation (mm), East Std. Deviation (mm),              Vertical Std. Deviation (mm), Quality,
2017-08-11,0.00, 0.00, 0.00, 2.09, 1.60, 7.07, repro,
2017-08-12,-0.87, -1.93, 3.54, 2.02, 1.54, 6.86, repro,
2017-08-13,1.35, -0.43, -0.84, 2.02, 1.52, 6.79, repro,
2017-08-14,0.54, -1.02, 6.79, 2.07, 1.57, 6.99, repro,
2017-08-15,2.73, -1.59, 4.64, 2.03, 1.53, 6.83, repro,
2017-08-16,2.00, -1.41, 4.16, 2.01, 1.53, 6.78, repro,
2017-08-17,-0.04, -1.83, -1.13, 2.05, 1.58, 6.97, repro,
2017-08-18,-0.23, -0.35, 1.85, 2.09, 1.58, 7.03, repro,
2017-08-19,1.72, -0.99, 4.06, 2.02, 1.53, 6.75, repro,
2017-08-20,-0.59, -0.63, 1.58, 2.02, 1.53, 6.81, repro,
2017-08-21,1.26, -0.69, -0.62, 2.02, 1.53, 6.79, repro,
2017-08-22,1.10, -2.18, 7.86, 2.06, 1.56, 6.99, repro,
2017-08-23,1.92, -1.15, 5.58, 2.01, 1.52, 6.74, repro,
2017-08-24,0.35, -4.23, 9.17, 2.07, 1.55, 6.85, repro,
2017-08-25,-0.55, -1.20, 6.24, 2.24, 1.62, 7.17, repro,
2017-08-26,-0.52, -2.97, 5.00, 2.01, 1.53, 6.78, repro,
2017-08-27,-0.58, -2.45, 3.02, 1.99, 1.53, 6.75, repro,
2017-08-28,0.61, -1.55, -6.23, 2.02, 1.52, 6.78, repro,
2017-08-29,0.44, -3.04, 7.52, 2.06, 1.57, 6.89, repro,
2017-08-30,-0.63, -1.78, 3.71, 2.07, 1.57, 6.91, repro,
2017-08-31,2.11, -2.46, 6.43, 2.06, 1.57, 6.94, repro,
2017-09-01,0.70, -1.71, 8.00, 2.04, 1.56, 6.90, repro,
2017-09-02,1.66, -1.81, 7.43, 2.05, 1.54, 6.87, repro,
2017-09-03,1.06, -1.87, 5.09, 2.11, 1.57, 7.04, repro,
2017-09-04,0.41, -2.48, 4.84, 2.01, 1.52, 6.73, repro,
2017-09-05,1.04, -1.45, 5.27, 2.06, 1.53, 6.90, repro,
2017-09-06,0.26, -2.01, 7.94, 2.02, 1.53, 6.78, repro,
2017-09-07,0.08, -1.59, 18.91, 2.11, 1.60, 7.13, repro,
2017-09-08,1.10, -3.05, 10.85, 2.12, 1.59, 7.10, repro,
2017-09-09,-1.43, -3.50, 11.24, 2.01, 1.52, 6.71, repro,
2017-09-10,0.00, -1.67, 7.69, 2.02, 1.52, 6.77, repro,
2017-09-11,0.27, -0.73, 4.79, 2.05, 1.53, 6.88, repro,
2017-09-12,-0.79, -0.40, 7.76, 2.05, 1.56, 6.88, repro,
2017-09-13,1.35, -1.33, 16.33, 2.08, 1.59, 7.05, repro,
2017-09-14,-1.41, -4.33, 9.07, 2.08, 1.60, 7.01, repro,
2017-09-15,0.23, -1.44, 8.99, 2.04, 1.56, 6.88, repro,
2017-09-16,-0.47, -2.15, 9.51, 2.00, 1.53, 6.75, repro,
2017-09-17,0.07, -3.25, 9.44, 2.10, 1.58, 7.14, repro,
2017-09-18,-1.18, -3.82, 11.78, 2.06, 1.55, 6.97, repro,
2017-09-19,-2.79, -4.34, 11.99, 2.04, 1.54, 6.85, repro,
2017-09-20,-2.27, -6.15, 15.36, 2.02, 1.52, 6.76, repro,
2017-09-21,1.47, -2.88, 9.04, 2.08, 1.58, 6.93, repro,
2017-09-22,0.13, -1.66, -0.05, 2.02, 1.55, 6.85, repro,
2017-09-23,-0.62, -2.72, 10.63, 2.03, 1.54, 6.86, repro,
2017-09-24,0.61, -1.60, 11.49, 2.04, 1.55, 6.89, repro,
2017-09-25,-0.00, -1.70, 8.98, 2.00, 1.53, 6.78, repro,
2017-09-26,0.04, -1.84, 3.46, 2.02, 1.53, 6.77, repro,
2017-09-27,0.45, -1.36, 5.12, 2.01, 1.53, 6.78, repro,
2017-09-28,0.09, -2.15, 0.63, 2.05, 1.54, 6.94, repro,
2017-09-29,0.73, -2.50, 2.85, 2.10, 1.57, 7.02, repro,
2017-09-30,-0.28, -2.46, 4.95, 2.00, 1.52, 6.72, repro,
2017-10-01,-0.92, -2.63, 9.29, 2.06, 1.57, 6.91, repro,
2017-10-02,0.26, -1.65, 6.72, 2.02, 1.53, 6.78, repro,
2017-10-03,2.96, -1.09, 0.57, 2.06, 1.54, 6.93, repro,
2017-10-04,0.52, -1.47, -0.47, 2.05, 1.55, 6.94, repro,
2017-10-05,1.18, -1.31, 0.80, 2.05, 1.55, 6.91, repro,
2017-10-06,1.80, -1.19, 6.67, 2.03, 1.53, 6.80, repro,
2017-10-07,0.92, -2.16, 7.57, 2.02, 1.53, 6.82, repro,
2017-10-08,1.81, -0.56, 9.16, 2.02, 1.53, 6.83, repro,
2017-10-09,0.76, -1.18, -1.73, 2.00, 1.52, 6.73, repro,
2017-10-10,2.18, -2.86, 4.28, 2.01, 1.53, 6.74, repro,
2017-10-11,-0.08, -3.33, 8.05, 2.05, 1.54, 6.86, repro,
2017-10-12,1.90, -3.31, 3.78, 2.07, 1.58, 7.01, repro,
2017-10-13,0.87, -3.58, 4.06, 2.01, 1.52, 6.73, repro,
2017-10-14,2.83, -1.90, 3.24, 2.02, 1.53, 6.77, repro,
2017-10-15,0.99, -1.18, -2.72, 2.01, 1.51, 6.69, repro,
2017-10-16,0.93, -0.93, 2.22, 2.00, 1.52, 6.71, repro,
2017-10-17,0.67, -0.40, 6.19, 2.02, 1.52, 6.71, repro,
2017-10-18,2.43, -4.17, 7.00, 2.01, 1.51, 6.69, repro,
2017-10-19,0.48, -4.65, 14.06, 2.10, 1.62, 7.07, repro,
2017-10-20,0.71, -5.10, 3.22, 2.07, 1.58, 6.98, repro,
2017-10-21,0.66, -3.57, 6.41, 2.06, 1.56, 6.98, repro,
2017-10-22,0.62, -3.69, 14.98, 2.04, 1.54, 6.87, repro,
2017-10-23,2.38, -0.26, -0.02, 2.04, 1.55, 6.86, repro,
2017-10-24,2.36, -1.99, -0.52, 2.02, 1.52, 6.77, repro,
2017-10-25,2.76, -0.95, 0.74, 2.01, 1.52, 6.75, repro,
2017-10-26,1.05, -0.45, 2.49, 2.02, 1.53, 6.81, repro,
2017-10-27,1.40, -0.72, -6.63, 2.10, 1.59, 6.96, repro,
2017-10-28,0.69, -1.48, -0.01, 1.98, 1.51, 6.67, repro,
2017-10-29,0.84, -1.14, 0.52, 2.05, 1.54, 6.82, repro,
2017-10-30,1.64, -1.64, 2.59, 2.24, 1.69, 7.43, repro,
2017-10-31,1.91, -0.91, -1.55, 2.02, 1.52, 6.74, repro,
2017-11-01,1.52, -0.55, -2.84, 2.03, 1.54, 6.85, repro,
2017-11-02,0.98, -1.84, 6.91, 2.07, 1.57, 6.97, repro,
2017-11-03,1.59, -3.64, 2.78, 2.00, 1.52, 6.70, repro,
2017-11-04,1.27, -1.50, -2.00, 2.02, 1.52, 6.74, repro,
2017-11-05,0.65, -2.23, -2.65, 2.01, 1.52, 6.72, repro,
2017-11-06,1.20, -1.17, -5.16, 2.05, 1.55, 6.90, repro,
2017-11-07,1.00, 0.70, -3.59, 2.08, 1.59, 6.97, repro,
2017-11-08,1.25, -2.05, 5.13, 2.04, 1.58, 6.86, repro,
2017-11-09,-1.64, -0.57, 1.45, 2.08, 1.59, 7.03, repro,
2017-11-10,1.10, -1.47, 4.70, 2.07, 1.58, 6.97, repro,
2017-11-11,-1.01, -2.40, -2.45, 2.08, 1.62, 7.12, repro,
2017-11-12,-0.69, -3.91, -7.78, 2.01, 1.53, 6.74, repro,
2017-11-13,-2.76, -2.38, 4.00, 2.03, 1.54, 6.82, repro,
2017-11-14,-0.47, -2.07, -6.98, 2.01, 1.52, 6.72, repro,
2017-11-15,3.29, 3.38, 0.64, 2.01, 1.53, 6.75, repro,
2017-11-16,0.15, -3.62, 5.47, 2.06, 1.56, 6.88, repro,
2017-11-17,2.27, -1.36, 0.71, 2.02, 1.53, 6.81, repro,
2017-11-18,-0.10, 0.28, -0.57, 2.04, 1.54, 6.88, repro,
2017-11-19,2.42, -0.89, 1.13, 2.05, 1.55, 6.89, repro,
2017-11-20,1.03, -1.86, 8.95, 2.02, 1.54, 6.82, repro,
2017-11-21,1.23, -1.40, 7.85, 2.01, 1.53, 6.81, repro,
2017-11-22,-3.24, 5.75, -8.41, 2.10, 1.57, 7.03, repro,
2017-11-23,-1.51, -0.90, 2.53, 2.06, 1.57, 7.04, repro,
2017-11-24,2.12, -0.95, 1.21, 2.01, 1.53, 6.79, repro,
2017-11-25,0.76, -1.01, -8.04, 2.03, 1.53, 6.78, repro,
2017-11-26,-0.77, -2.73, 3.18, 2.04, 1.54, 6.84, repro,
2017-11-27,1.60, -0.92, -1.44, 2.02, 1.52, 6.74, repro,
2017-11-28,0.73, -0.30, -5.71, 2.03, 1.52, 6.77, repro,
2017-11-29,0.48, -0.68, 0.46, 2.07, 1.56, 6.98, repro,
2017-11-30,0.33, -1.06, -1.22, 2.06, 1.55, 6.91, repro,
2017-12-01,1.41, -1.91, -1.22, 2.01, 1.52, 6.74, repro,
2017-12-02,0.42, -3.02, 2.75, 2.00, 1.51, 6.69, repro,
2017-12-03,2.09, -0.92, 6.59, 2.01, 1.53, 6.76, repro,
2017-12-04,1.66, -0.28, -1.69, 2.04, 1.55, 6.90, repro,
2017-12-05,1.42, -0.41, -3.06, 2.06, 1.57, 6.90, repro,
2017-12-06,1.78, -0.93, 0.79, 2.01, 1.53, 6.75, repro,
2017-12-07,1.94, -0.42, -5.72, 2.01, 1.52, 6.74, repro,
2017-12-08,0.52, 0.45, -6.03, 2.02, 1.52, 6.76, repro,
2017-12-09,0.80, 0.50, -3.63, 2.05, 1.54, 6.90, repro,
2017-12-10,0.53, 0.14, -2.82, 2.05, 1.55, 6.90, repro,
2017-12-11,0.07, -0.43, -0.62, 2.21, 1.74, 7.59, repro,
2017-12-12,0.74, 0.18, -6.23, 2.02, 1.52, 6.74, repro,
2017-12-13,0.66, -0.37, -3.49, 2.06, 1.54, 6.91, repro,
2017-12-14,-0.36, 0.55, 2.13, 2.07, 1.62, 7.02, repro,
2017-12-15,0.19, 0.18, -1.65, 2.06, 1.55, 6.91, repro,
2017-12-16,2.45, -0.91, 3.71, 2.02, 1.53, 6.77, repro,
2017-12-17,0.64, -1.09, 3.55, 2.01, 1.52, 6.70, repro,
2017-12-18,0.67, -0.25, -0.57, 2.05, 1.53, 6.86, repro,
2017-12-19,0.10, 1.52, 1.66, 2.10, 1.56, 6.96, repro,
2017-12-20,-0.19, -1.16, 5.94, 2.05, 1.57, 6.93, repro,
2017-12-21,1.29, 0.83, -1.74, 2.02, 1.52, 6.68, repro,
2017-12-22,0.88, -0.20, -1.45, 2.01, 1.51, 6.68, repro,
2017-12-23,1.28, -1.07, -2.34, 2.08, 1.53, 6.79, repro,
2017-12-24,0.54, -0.94, -4.07, 2.04, 1.52, 6.78, repro,
2017-12-25,2.06, -1.21, -2.53, 2.06, 1.57, 6.89, repro,
2017-12-26,2.37, -0.57, -3.89, 2.01, 1.52, 6.71, repro,
2017-12-27,1.10, 0.70, -8.89, 2.00, 1.52, 6.65, repro,
2017-12-28,0.24, -0.87, -2.55, 2.04, 1.53, 6.79, repro,
2017-12-29,-0.54, -1.17, 5.49, 2.01, 1.51, 6.69, repro,
2017-12-30,1.88, -0.45, -0.07, 2.03, 1.53, 6.81, repro,
2017-12-31,1.18, -0.51, 2.37, 2.02, 1.53, 6.76, repro,
2018-01-01,1.80, -0.88, -7.40, 2.01, 1.52, 6.69, repro,
2018-01-02,2.23, -1.52, -5.10, 2.00, 1.52, 6.68, repro,
2018-01-03,-0.64, -1.81, -4.11, 2.08, 1.52, 6.76, repro,
2018-01-04,-1.18, -2.03, -5.40, 2.02, 1.52, 6.74, repro,
2018-01-05,2.66, 0.10, 1.77, 2.06, 1.54, 6.91, repro,
2018-01-06,0.69, -3.27, -1.15, 2.02, 1.52, 6.74, repro,
2018-01-07,1.54, -3.83, -3.66, 2.01, 1.52, 6.72, repro,
2018-01-08,1.07, -3.10, 5.68, 2.06, 1.52, 6.71, repro,
2018-01-09,0.25, -4.51, 4.87, 2.08, 1.52, 6.76, repro,
2018-01-10,-0.16, -3.35, 3.97, 2.02, 1.52, 6.76, repro,
2018-01-11,0.37, -3.63, 4.54, 2.03, 1.54, 6.83, repro,
2018-01-12,-1.94, -2.94, 2.46, 2.02, 1.53, 6.74, repro,
2018-01-13,0.33, -3.61, 0.77, 2.05, 1.55, 6.85, repro,
2018-01-14,-2.38, -3.51, -7.76, 2.01, 1.51, 6.69, repro,
2018-01-15,1.31, -3.75, -0.96, 2.03, 1.53, 6.75, repro,
2018-01-16,-1.02, -3.45, -1.21, 2.03, 1.54, 6.84, repro,
2018-01-17,-1.38, -4.66, -1.79, 2.03, 1.53, 6.78, repro,
2018-01-18,-0.99, -6.26, -0.82, 2.03, 1.54, 6.83, repro,
2018-01-19,-1.17, -4.81, -3.06, 2.03, 1.51, 6.71, repro,
2018-01-20,-0.42, -4.18, 2.39, 2.01, 1.51, 6.65, repro,
2018-01-21,-0.42, -2.48, 3.95, 2.02, 1.52, 6.71, repro,
2018-01-22,-1.88, -4.03, -3.49, 2.05, 1.53, 6.82, repro,
2018-01-23,0.73, -2.88, 4.82, 2.01, 1.53, 6.72, repro,
2018-01-24,-2.41, -3.44, -0.50, 2.09, 1.58, 7.07, repro,
2018-01-25,-0.50, -3.02, 11.88, 2.07, 1.56, 6.94, repro,
2018-01-26,-2.33, -4.68, -3.89, 2.07, 1.55, 6.87, repro,
2018-01-27,-1.22, -4.49, -0.91, 2.04, 1.56, 6.90, repro,
2018-01-28,-0.35, -1.37, -10.09, 2.09, 1.60, 7.00, repro,
2018-01-29,1.19, -1.88, -3.34, 2.06, 1.56, 6.92, repro,
2018-01-30,1.71, -1.75, 4.68, 2.07, 1.55, 6.88, repro,
2018-01-31,-0.40, -2.22, 1.56, 2.06, 1.54, 6.85, repro,
2018-02-01,0.28, -3.32, -3.30, 2.06, 1.56, 6.93, repro,
2018-02-02,-1.12, -2.15, -10.34, 2.06, 1.55, 6.87, repro,
2018-02-03,-1.35, -2.08, -4.35, 2.05, 1.56, 6.87, repro,
2018-02-04,0.41, -2.22, 2.37, 2.10, 1.61, 7.09, repro,
2018-02-05,0.46, -1.79, 5.76, 2.10, 1.60, 7.06, repro,
2018-02-06,-1.09, -2.53, -0.64, 2.28, 1.62, 7.23, repro,
2018-02-07,-1.37, -2.14, -3.16, 2.06, 1.56, 6.93, repro,
2018-02-08,1.44, -1.48, -9.81, 2.13, 1.60, 7.15, repro,
2018-02-09,-0.17, -1.15, -0.03, 2.05, 1.55, 6.85, repro,
2018-02-10,0.25, -1.96, 3.09, 2.06, 1.56, 6.89, repro,
2018-02-11,1.10, -3.86, -0.97, 2.06, 1.55, 6.86, repro,
2018-02-12,1.33, -1.42, -4.43, 2.14, 1.57, 6.98, repro,
2018-02-13,1.12, -1.64, -7.00, 2.09, 1.60, 7.06, repro,
2018-02-14,0.60, -2.77, -2.34, 2.08, 1.60, 7.04, repro,
2018-02-15,0.57, -1.83, -6.41, 2.06, 1.56, 6.90, repro,
2018-02-16,0.38, -2.04, 2.86, 2.05, 1.55, 6.83, repro,
2018-02-17,0.02, -4.97, 1.55, 2.07, 1.56, 6.91, repro,
2018-02-18,-1.29, -3.64, 9.41, 2.06, 1.56, 6.88, repro,
2018-02-19,0.34, -4.23, -4.63, 2.07, 1.55, 6.88, repro,
2018-02-20,0.95, -2.32, -4.70, 2.07, 1.56, 6.88, repro,
2018-02-21,2.17, -2.08, 0.20, 2.05, 1.54, 6.83, repro,
2018-02-22,0.13, -3.47, -9.02, 2.07, 1.56, 6.89, repro,
2018-02-23,0.82, -1.72, -4.41, 2.18, 1.62, 7.20, repro,
2018-02-24,-0.22, -2.69, -2.80, 2.11, 1.56, 7.01, repro,
2018-02-25,0.58, -2.63, 1.93, 2.07, 1.55, 6.88, repro,
2018-02-26,2.12, -2.88, -0.80, 2.07, 1.56, 6.93, repro,
2018-02-27,0.28, -3.50, 2.96, 2.14, 1.56, 6.95, repro,
2018-02-28,-1.77, -2.75, -0.55, 2.07, 1.55, 6.86, repro,
2018-03-01,-0.22, -1.94, -4.73, 2.10, 1.60, 7.04, repro,
2018-03-02,-1.29, -2.37, -12.19, 2.11, 1.61, 7.10, repro,
2018-03-03,-1.74, -4.31, -4.45, 2.07, 1.56, 6.90, repro,
2018-03-04,-0.88, -3.48, -3.06, 2.08, 1.54, 6.84, repro,
2018-03-05,-1.09, -1.90, 0.38, 2.10, 1.56, 6.92, repro,
2018-03-06,-1.73, -1.63, 1.49, 2.06, 1.55, 6.86, repro,
2018-03-07,-0.73, -2.31, -0.29, 2.05, 1.57, 6.90, repro,
2018-03-08,-1.93, -2.84, 4.78, 2.13, 1.60, 7.11, repro,
2018-03-09,0.23, -0.71, 11.83, 2.11, 1.58, 7.02, repro,
2018-03-10,-0.49, -1.31, -3.22, 2.18, 1.57, 7.05, repro,
2018-03-11,0.82, -1.55, -3.34, 2.13, 1.56, 6.91, repro,
2018-03-12,-0.88, -2.31, -3.30, 2.07, 1.56, 6.89, repro,
2018-03-13,-1.78, -3.78, 6.05, 2.07, 1.56, 6.90, repro,
2018-03-14,-0.06, -2.46, -0.06, 2.08, 1.57, 6.96, repro,
2018-03-15,0.03, -5.65, -1.52, 2.17, 1.58, 7.19, repro,
2018-03-16,-0.79, -2.84, 10.89, 2.08, 1.54, 6.79, repro,
2018-03-17,-0.19, -3.59, 2.79, 2.07, 1.55, 6.81, repro,
2018-03-18,-0.32, -3.61, 5.00, 2.09, 1.56, 6.87, repro,
2018-03-19,-0.57, -2.22, 0.50, 2.06, 1.56, 6.85, repro,
2018-03-20,0.48, -2.39, -0.86, 2.08, 1.56, 6.91, repro,
2018-03-21,-0.20, -1.87, 6.84, 2.03, 1.54, 6.76, repro,
2018-03-22,-2.21, -4.08, 6.26, 2.03, 1.56, 6.87, repro,
2018-03-23,-0.25, -1.37, -0.16, 2.04, 1.55, 6.83, repro,
2018-03-24,-1.17, -4.04, -0.90, 2.06, 1.57, 6.96, repro,
2018-03-25,0.83, -1.50, -2.95, 2.03, 1.55, 6.82, repro,
2018-03-26,-0.27, -2.63, 0.23, 2.08, 1.55, 6.90, repro,
2018-03-27,0.90, -1.53, 1.63, 2.02, 1.54, 6.79, repro,
2018-03-28,2.01, -1.37, -9.03, 2.02, 1.55, 6.79, repro,
2018-03-29,0.32, -1.09, -9.18, 2.03, 1.55, 6.82, repro,
2018-03-30,0.58, -2.17, -5.98, 2.07, 1.58, 6.93, repro,
2018-03-31,-0.24, -1.49, -5.51, 2.07, 1.57, 6.87, repro,
2018-04-01,-0.07, -2.36, -9.05, 2.03, 1.53, 6.73, repro,
2018-04-02,0.83, -3.51, 0.84, 2.03, 1.54, 6.78, repro,
2018-04-03,0.45, -2.67, 2.08, 2.02, 1.56, 6.79, repro,
2018-04-04,-0.24, -2.58, 1.77, 2.01, 1.54, 6.73, repro,
2018-04-05,-1.00, -3.10, -4.57, 2.07, 1.59, 7.00, repro,
2018-04-06,-1.66, -3.56, -0.25, 2.09, 1.58, 6.98, repro,
2018-04-07,-5.58, -3.04, 0.65, 2.06, 1.56, 6.87, repro,
2018-04-08,-1.38, -3.68, 0.20, 2.03, 1.55, 6.77, repro,
2018-04-09,-1.25, -2.23, 0.79, 2.01, 1.54, 6.71, repro,
2018-04-10,-1.99, -4.77, 0.70, 2.08, 1.59, 6.93, repro,
2018-04-11,-5.42, -5.75, 8.92, 2.10, 1.56, 6.87, repro,
2018-04-12,-3.49, -5.18, 1.85, 2.16, 1.59, 7.05, repro,
2018-04-13,-1.29, -2.56, 3.47, 2.41, 1.78, 7.90, repro,
2018-04-14,-0.87, -2.11, -6.89, 2.03, 1.55, 6.78, repro,
2018-04-15,-1.63, -2.74, -4.99, 2.02, 1.55, 6.76, repro,
2018-04-16,-1.48, -3.04, 0.51, 2.06, 1.55, 6.86, repro,
2018-04-17,-0.35, -2.41, 9.48, 2.47, 1.97, 8.65, repro,
2018-04-18,-1.38, -2.45, -0.09, 2.09, 1.55, 6.91, repro,
2018-04-19,-1.13, -4.09, 3.11, 2.34, 1.91, 8.21, repro,
2018-04-20,-0.48, -3.11, -4.48, 2.01, 1.54, 6.70, repro,
2018-04-21,-0.85, -3.07, -2.77, 2.07, 1.57, 6.89, repro,
2018-04-22,-0.39, -2.92, -4.78, 2.03, 1.55, 6.78, repro,
2018-04-23,0.16, -2.10, -9.61, 2.08, 1.55, 6.83, repro,
2018-04-24,-0.50, -2.77, -6.81, 2.03, 1.53, 6.75, repro,
2018-04-25,-0.61, -3.52, -4.92, 2.00, 1.53, 6.69, repro,
2018-04-26,-0.62, -4.05, 2.72, 2.02, 1.54, 6.74, repro,
2018-04-27,-0.65, -1.90, 4.15, 2.26, 1.71, 7.58, repro,
2018-04-28,-0.42, -2.02, -0.12, 2.07, 1.56, 6.91, repro,
2018-04-29,-0.62, -2.32, -1.23, 2.03, 1.54, 6.75, repro,
2018-04-30,-0.10, -2.62, 0.90, 2.13, 1.63, 7.18, repro,
2018-05-01,0.51, -2.49, 0.91, 2.07, 1.63, 7.07, repro,
2018-05-02,0.14, -3.29, 2.12, 2.02, 1.54, 6.73, repro,
2018-05-03,-0.85, -2.64, -2.38, 2.05, 1.58, 6.89, repro,
2018-05-04,0.52, -1.86, 1.13, 2.07, 1.58, 7.00, repro,
2018-05-05,-0.60, -1.23, -1.82, 2.04, 1.55, 6.85, repro,
2018-05-06,-1.50, -1.18, -1.01, 2.08, 1.59, 7.00, repro,
2018-05-07,0.06, -2.29, -1.63, 2.04, 1.58, 6.90, repro,
2018-05-08,0.55, -3.25, -3.25, 2.03, 1.54, 6.78, repro,
2018-05-09,-1.35, -4.02, 3.39, 2.05, 1.54, 6.80, repro,
2018-05-10,-0.52, -2.00, -1.50, 2.08, 1.55, 6.86, repro,
2018-05-11,-0.10, -2.32, 0.73, 2.02, 1.53, 6.69, repro,
2018-05-12,1.03, -1.60, -0.93, 2.01, 1.53, 6.68, repro,
2018-05-13,1.09, -3.52, 11.75, 2.04, 1.58, 6.87, repro,
2018-05-14,-0.17, -2.61, 1.64, 2.02, 1.53, 6.72, repro,
2018-05-15,0.68, -1.94, 0.74, 2.03, 1.54, 6.78, repro,
2018-05-16,0.51, -2.01, 1.26, 2.03, 1.54, 6.77, repro,
2018-05-17,1.00, -3.01, -1.03, 2.06, 1.59, 6.88, repro,
2018-05-18,0.70, -3.29, 4.21, 2.06, 1.56, 6.85, repro,
2018-05-19,-0.21, -3.05, 6.60, 2.02, 1.53, 6.70, repro,
2018-05-20,-0.23, -2.50, 6.72, 2.04, 1.54, 6.80, repro,
2018-05-21,-0.70, -2.41, 13.83, 2.04, 1.54, 6.79, repro,
2018-05-22,-0.80, -3.84, 8.07, 2.02, 1.53, 6.73, repro,
2018-05-23,-0.99, -4.35, 13.80, 2.03, 1.55, 6.78, repro,
2018-05-24,-0.44, -4.05, 5.37, 2.02, 1.54, 6.75, repro,
2018-05-25,0.28, -2.56, 7.65, 2.02, 1.54, 6.74, repro,
2018-05-26,-1.60, -2.80, 3.91, 2.04, 1.54, 6.80, repro,
2018-05-27,-0.68, -1.13, 5.36, 2.02, 1.54, 6.77, repro,
2018-05-28,-0.39, -0.58, 9.65, 2.04, 1.55, 6.86, repro,
2018-05-29,-1.19, -2.03, 11.23, 2.07, 1.58, 6.87, repro,
2018-05-30,0.00, -3.18, 17.86, 2.07, 1.59, 6.87, repro,
2018-05-31,-0.97, -2.73, 16.01, 2.02, 1.53, 6.75, repro,
2018-06-01,-1.04, -2.97, 4.74, 2.04, 1.54, 6.83, repro,
2018-06-02,-1.17, -2.09, -0.49, 2.01, 1.54, 6.74, repro,
2018-06-03,-0.71, -2.60, 2.38, 2.07, 1.68, 7.11, repro,
2018-06-04,-1.05, -2.70, 11.73, 2.06, 1.49, 6.69, repro,
2018-06-05,-1.61, -3.01, 8.63, 1.98, 1.57, 6.82, repro,
2018-06-06,-0.74, -1.98, 6.73, 2.03, 1.58, 6.82, repro,
2018-06-07,0.25, -1.53, 7.80, 2.04, 1.55, 6.73, repro,
2018-06-08,-0.64, -1.96, 5.16, 2.03, 1.55, 6.71, repro,
2018-06-09,-2.03, -1.95, 12.69, 2.10, 1.64, 7.12, repro,
2018-06-10,-1.25, -3.27, 11.16, 2.02, 1.53, 6.77, repro,
2018-06-11,-1.48, -2.52, 8.05, 2.12, 1.43, 6.74, repro,
2018-06-12,-0.50, -0.93, 5.98, 2.03, 1.56, 6.84, repro,
2018-06-13,0.18, -2.81, 5.41, 2.05, 1.48, 6.72, repro,
2018-06-14,-0.43, -1.55, 7.94, 2.03, 1.58, 6.81, repro,
2018-06-15,0.41, -2.44, 13.85, 2.05, 1.52, 6.72, repro,
2018-06-16,-0.72, -1.28, 8.91, 2.01, 1.56, 6.86, repro,
2018-06-17,1.92, -1.27, 7.38, 2.11, 1.52, 6.83, repro,
2018-06-18,1.04, -1.91, 8.77, 2.05, 1.48, 6.75, repro,
2018-06-19,-0.10, -2.36, 10.26, 2.06, 1.49, 6.74, repro,
2018-06-20,-0.93, -2.04, 10.26, 2.07, 1.52, 6.89, repro,
2018-06-21,-0.87, -2.26, 9.16, 2.05, 1.61, 7.00, repro,
2018-06-22,-0.17, -1.24, 12.49, 2.10, 1.48, 6.90, repro,
2018-06-23,1.18, -1.97, 9.96, 2.06, 1.54, 6.99, repro,
2018-06-24,-2.38, -0.96, 10.57, 2.02, 1.52, 6.74, repro,
2018-06-25,0.31, -3.00, 10.63, 2.02, 1.54, 6.82, repro,
2018-06-26,0.38, -1.71, 9.76, 2.02, 1.52, 6.70, repro,
2018-06-27,-1.25, -2.58, 11.88, 2.61, 2.11, 8.71, repro,
2018-06-28,0.16, -1.18, 9.19, 2.09, 1.54, 6.95, repro,
2018-06-29,-0.26, -1.71, 10.53, 2.08, 1.54, 6.90, repro,
2018-06-30,-1.55, -1.26, 6.95, 2.07, 1.55, 6.83, repro,
2018-07-01,-1.65, -1.35, 2.17, 2.08, 1.54, 6.83, repro,
2018-07-02,-1.55, -1.47, 13.51, 2.02, 1.52, 6.73, repro,
2018-07-03,0.05, -2.21, 4.78, 2.17, 1.60, 7.13, repro,
2018-07-04,0.15, -1.63, 9.14, 2.14, 1.57, 7.12, repro,
2018-07-05,-0.13, 0.07, 8.62, 2.05, 1.55, 6.88, repro,
2018-07-06,-3.13, -4.14, 4.51, 2.09, 1.54, 6.95, repro,
2018-07-07,0.15, -2.41, 10.00, 2.02, 1.52, 6.70, repro,
2018-07-08,-0.64, -0.82, 6.97, 2.07, 1.55, 6.88, repro,
2018-07-09,-1.73, -1.40, 4.26, 2.13, 1.57, 7.10, repro,
2018-07-10,1.30, -2.40, 2.43, 2.09, 1.56, 6.91, repro,
2018-07-11,-0.26, -1.15, 4.12, 2.07, 1.54, 6.80, repro,
2018-07-12,-0.09, -2.95, 7.94, 2.11, 1.59, 7.04, repro,
2018-07-13,0.23, -3.03, 10.25, 2.01, 1.52, 6.72, repro,
2018-07-14,2.10, -1.47, 6.27, 2.08, 1.56, 6.97, repro,
2018-07-15,-0.28, -1.45, 6.65, 2.08, 1.55, 6.96, repro,
2018-07-16,0.58, -3.46, 8.95, 2.09, 1.55, 6.95, repro,
2018-07-17,-0.39, -2.23, 9.07, 2.04, 1.53, 6.82, repro,
2018-07-18,1.35, -2.69, 11.70, 2.04, 1.56, 6.86, repro,
2018-07-19,0.18, -1.99, 6.55, 2.05, 1.56, 6.90, repro,
2018-07-20,0.45, -2.26, 6.10, 2.03, 1.53, 6.80, repro,
2018-07-21,1.38, -1.40, 2.93, 2.07, 1.54, 6.87, repro,
2018-07-22,-0.62, -2.09, 7.06, 2.07, 1.55, 6.93, repro,
2018-07-23,1.13, -4.42, 7.00, 2.04, 1.54, 6.86, repro,
2018-07-24,-2.27, -1.81, 9.84, 2.07, 1.56, 6.95, repro,
2018-07-25,0.55, -1.06, 5.54, 2.04, 1.52, 6.77, repro,
2018-07-26,0.96, -2.18, 1.75, 2.03, 1.52, 6.79, repro,
2018-07-27,1.77, -3.05, 4.59, 2.06, 1.54, 6.82, repro,
2018-07-28,-0.13, -3.46, 7.30, 2.06, 1.54, 6.89, repro,
2018-07-29,1.69, -3.49, 10.52, 2.07, 1.57, 6.98, repro,
2018-07-30,-0.02, -2.91, 5.25, 2.14, 1.60, 7.14, repro,
2018-07-31,-0.15, -2.34, 6.47, 2.18, 1.61, 7.14, repro,
2018-08-01,0.22, -3.08, 6.29, 2.13, 1.56, 6.95, repro,
2018-08-02,-0.31, -2.16, 11.42, 2.19, 1.58, 7.24, repro,
2018-08-03,-0.13, -2.80, 15.69, 2.07, 1.54, 6.90, repro,
2018-08-04,-0.57, -2.72, 9.39, 2.05, 1.53, 6.81, repro,
2018-08-05,0.33, -2.31, 6.80, 2.03, 1.52, 6.77, repro,
2018-08-06,-0.54, -3.69, 5.32, 2.01, 1.52, 6.71, repro,
2018-08-07,0.46, -2.76, 12.87, 2.12, 1.59, 7.04, repro,
2018-08-08,1.22, -3.61, 11.84, 2.02, 1.53, 6.76, repro,
2018-08-09,0.77, -3.98, 13.20, 2.14, 1.57, 6.99, repro,
2018-08-10,0.16, -4.93, 1.48, 2.05, 1.52, 6.80, repro,
2018-08-11,-0.36, -3.42, 3.90, 2.01, 1.52, 6.73, repro,
2018-08-12,-0.03, -2.58, 8.43, 2.06, 1.53, 6.79, repro,
2018-08-13,-0.55, -4.21, 10.13, 2.11, 1.56, 7.06, repro,
2018-08-14,-0.15, -3.78, 12.05, 2.08, 1.54, 6.86, repro,
2018-08-15,-0.72, -3.35, 11.30, 2.05, 1.53, 6.82, repro,
2018-08-16,1.00, -2.73, 5.86, 2.08, 1.54, 6.89, repro,
2018-08-17,0.72, -2.55, 3.44, 2.08, 1.55, 6.89, repro,
2018-08-18,1.42, -3.18, 8.01, 2.06, 1.53, 6.79, repro,
2018-08-19,0.90, -3.73, 11.24, 2.04, 1.52, 6.78, repro,
2018-08-20,1.94, -1.78, 12.30, 2.10, 1.59, 7.03, repro,
2018-08-21,0.18, -3.15, 10.30, 2.03, 1.52, 6.76, repro,
2018-08-22,0.57, -2.26, 3.47, 2.11, 1.58, 7.07, repro,
2018-08-23,0.07, -3.98, 8.96, 2.13, 1.59, 7.11, repro,
2018-08-24,-0.10, -3.77, 14.72, 2.06, 1.54, 6.87, repro,
2018-08-25,0.41, -2.26, 14.51, 2.09, 1.55, 6.89, repro,
2018-08-26,0.39, -2.45, 15.10, 2.04, 1.53, 6.81, repro,
2018-08-27,1.11, -3.02, 14.78, 2.00, 1.51, 6.69, repro,
2018-08-28,0.01, -2.31, 5.51, 2.02, 1.52, 6.76, repro,
2018-08-29,-1.69, -2.58, 9.09, 2.02, 1.52, 6.75, repro,
2018-08-30,-1.12, -2.91, 16.01, 2.03, 1.53, 6.81, repro,
2018-08-31,1.49, -2.33, 17.16, 2.03, 1.54, 6.80, repro,
2018-09-01,-0.02, -3.15, 13.26, 2.02, 1.53, 6.75, repro,
2018-09-02,-0.38, -2.17, 12.82, 2.02, 1.53, 6.78, repro,
2018-09-03,0.66, -2.24, 9.51, 2.03, 1.54, 6.80, repro,
2018-09-04,0.73, -3.85, 13.31, 2.08, 1.57, 7.01, repro,
2018-09-05,-0.15, -3.69, 11.58, 2.03, 1.54, 6.81, repro,
2018-09-06,0.08, -2.83, 11.00, 2.08, 1.54, 6.84, repro,
2018-09-07,0.77, -1.72, 4.70, 2.11, 1.55, 6.95, repro,
2018-09-08,-0.32, -2.32, 5.01, 2.04, 1.53, 6.78, repro,
2018-09-09,-0.54, -1.99, 9.48, 2.03, 1.53, 6.80, repro,
2018-09-10,-0.66, -2.93, 13.91, 2.04, 1.54, 6.88, repro,
2018-09-11,1.79, -1.83, 8.51, 2.05, 1.58, 6.97, repro,
2018-09-12,-0.30, -1.73, 15.60, 2.04, 1.53, 6.83, repro,
2018-09-13,0.26, -2.71, 9.18, 2.02, 1.54, 6.83, repro,
2018-09-14,-0.05, -3.32, 9.47, 2.07, 1.54, 6.93, repro,
2018-09-15,0.28, -3.86, 10.13, 2.08, 1.55, 6.94, repro,
2018-09-16,0.68, -2.75, 6.33, 2.01, 1.52, 6.77, repro,
2018-09-17,1.05, -3.09, 4.43, 2.02, 1.52, 6.76, repro,
2018-09-18,0.91, -2.49, 9.07, 2.00, 1.53, 6.76, repro,
2018-09-19,1.33, -2.06, 2.24, 2.02, 1.52, 6.78, repro,
2018-09-20,1.19, -1.95, -0.33, 2.09, 1.55, 6.95, repro,
2018-09-21,0.04, -3.16, 2.19, 2.04, 1.53, 6.84, repro,
2018-09-22,1.82, -1.38, 5.50, 2.05, 1.55, 6.95, repro,
2018-09-23,1.50, -2.59, 3.87, 2.02, 1.52, 6.75, repro,
2018-09-24,-0.17, -2.21, 4.66, 2.01, 1.52, 6.74, repro,
2018-09-25,0.74, -1.58, 7.79, 2.04, 1.54, 6.83, repro,
2018-09-26,1.25, -1.61, 7.10, 2.07, 1.54, 6.94, repro,
2018-09-27,0.45, -3.03, 10.56, 2.03, 1.54, 6.84, repro,
2018-09-28,1.41, -2.83, 8.27, 2.03, 1.53, 6.80, repro,
2018-09-29,-0.84, -2.70, 9.01, 2.06, 1.54, 6.83, repro,
2018-09-30,1.67, -1.85, 3.89, 2.02, 1.52, 6.76, repro,
2018-10-01,1.66, -2.07, 6.50, 2.02, 1.52, 6.73, repro,
2018-10-02,1.63, -2.34, 7.25, 2.04, 1.52, 6.81, repro,
2018-10-03,0.73, -2.57, 9.30, 2.03, 1.53, 6.79, repro,
2018-10-04,0.52, -2.06, 7.03, 2.09, 1.55, 6.94, repro,
2018-10-05,0.70, -2.33, 6.15, 2.02, 1.52, 6.74, repro,